Regional Weather Roundup
Issued by NWS

Home | Current Version | Previous Version | Graphics & Text | Print | Product List | Glossary On
Versions: 1 2 3 4 5 6 7 8 9 10 11 12 13 14 15 16 17 18 19 20 21 22 23 24 25 26 27 28 29 30 31 32 33 34 35 36 37 38 39 40 41 42 43 44 45 46 47 48 49 50
000
ASUS43 KLOT 041421
RWRIL

ILLINOIS REGIONAL WEATHER ROUNDUP
NATIONAL WEATHER SERVICE CHICAGO/ROMEOVILLE IL
900 AM CDT SAT JUL 04 2015

NOTE: "FAIR" INDICATES FEW OR NO CLOUDS BELOW 12,000 FEET WITH NO
SIGNIFICANT WEATHER AND/OR OBSTRUCTIONS TO VISIBILITY.

* THESE STATIONS ARE NOT UNDER NWS QUALITY CONTROL. THEY ALSO MAY NOT
  REPORT WEATHER SUCH AS PRECIPITATION OR FOG.

ILZ001-002-007-009-015-016-024-041500-
NORTHWEST ILLINOIS

CITY           SKY/WX    TMP DP  RH WIND       PRES   REMARKS
MOLINE         SUNNY     69  62  78 CALM      30.01R HAZE
STERLING*      SUNNY     72  61  68 CALM      30.01S
SAVANNA*       SUNNY     68  58  70 CALM      30.00S
$$

ILZ003-004-008-010-011-017-018-041500-
NORTH CENTRAL ILLINOIS

CITY           SKY/WX    TMP DP  RH WIND       PRES   REMARKS
ROCKFORD       SUNNY     67  59  75 CALM      30.01S
FREEPORT*      SUNNY     66  59  76 W3        30.02S
ROCHELLE*      SUNNY     67  58  73 CALM      30.02R
DE KALB*       SUNNY     67  57  69 NW3       30.01S
PERU*          SUNNY     68  57  68 CALM      30.02S
$$

ILZ005-006-012>014-019>023-041500-
NORTHEAST ILLINOIS

CITY           SKY/WX    TMP DP  RH WIND       PRES   REMARKS
CHICAGO-OHARE  SUNNY     71  55  56 NW3       29.99R
CHICAGO-MIDWAY SUNNY     73  59  61 CALM      29.99S
AURORA         SUNNY     70  56  61 NW5       30.01R
LANSING*       SUNNY     69  55  59 W3        30.00S
JOLIET*        SUNNY     71  62  72 CALM      30.00S
WAUKEGAN       SUNNY     70  59  68 W5        29.98S
DUPAGE AIRPORT SUNNY     71  57  61 N5        29.99S
KANKAKEE*      SUNNY     70  62  76 CALM      30.02R
WHEELING       SUNNY     72  56  57 NW3       29.99F
MORRIS*        SUNNY     69  61  76 CALM      29.98S
ROMEOVILLE*    SUNNY     70  58  64 NW3       30.01R
NORTHERLY ISL    N/A     69  57  65 NE3         N/A
$$

LMZ740>746-041500-
SOUTHERN LAKE MICHIGAN

STATION/POSITION SKY/WX   TEMP    WIND        PRES    VSBY  WAVE
                          AIR SEA DIR/SP/G                  HT/PER
                          (F)     (DEG/KT/KT) (MB)    (MI)  (FT/S)
HARRISON CRIB              69     310/  2/  2   N/A
BURNHAM HARBOR             69      90/  3/  6   N/A
CALUMET HARBOR             68     280/  2/  3   N/A
BURNS HARBOR               66     230/  2/  3 1016.3R
MICHIGAN CITY              65     210/  3/  4   N/A
MICHIGAN CITY 6N           63 64  200/  4/  4   N/A           0
ST. JOSEPH                 62 63                N/A           0
$$

ILZ025>027-034>036-040-047-049-050-058-095>099-041500-
WEST-CENTRAL ILLINOIS

CITY           SKY/WX    TMP DP  RH WIND       PRES   REMARKS
QUINCY         SUNNY     70  64  81 CALM      30.03R
GALESBURG*     SUNNY     70  62  76 CALM      30.03R
MACOMB*        SUNNY     67  64  87 CALM      30.05R
JACKSONVILLE*  SUNNY     72  67  83 CALM      30.03R
PITTSFIELD*    SUNNY     70  66  88 CALM      30.04R FOG
$$

ILZ028>032-037-038-041>044-048-051>054-059>061-041500-
CENTRAL ILLINOIS

CITY           SKY/WX    TMP DP  RH WIND       PRES   REMARKS
PONTIAC        SUNNY     70  65  85 CALM      30.03R
BLOOMINGTON    SUNNY     73  60  63 CALM      30.04R
DECATUR        SUNNY     69  61  75 CALM      30.03R
PEORIA         SUNNY     74  61  63 CALM      30.02R
LACON*         SUNNY     68  60  77 CALM      30.01R
LINCOLN*       SUNNY     71  63  77 CALM      30.03R
SPRINGFIELD    SUNNY     73  65  75 CALM      30.03R
TAYLORVILLE    CLOUDY    68  63  83 CALM      30.04R
$$

ILZ033-039-045-046-055>057-062-063-041500-
EAST-CENTRAL ILLINOIS

CITY           SKY/WX    TMP DP  RH WIND       PRES   REMARKS
CHAMPAIGN      SUNNY     70  64  81 CALM      30.03R
DANVILLE*      SUNNY     67  62  82 CALM      30.00R
RANTOUL*       SUNNY     70  63  78 CALM      30.02R
MATTOON          N/A     70  63  78 CALM      30.02R
PARIS*         SUNNY     69  64  83 CALM      30.03R
$$

ILZ079-100>102-041500-
SOUTHWEST ILLINOIS

CITY           SKY/WX    TMP DP  RH WIND       PRES   REMARKS
ALTON          SUNNY     70  70 100 CALM      30.03R
BELLEVILLE     SUNNY     73  70  92 E1        30.01R
CAHOKIA*       SUNNY     73  66  78 SE3       30.02R
SPARTA*        SUNNY     72  68  89 CALM      30.03R
$$

ILZ064>066-069>071-074>076-080>082-084>086-088>090-092>094-041500-
SOUTH-CENTRAL ILLINOIS

CITY           SKY/WX    TMP DP  RH WIND       PRES   REMARKS
CARBONDALE     MOSUNNY   73  67  81 NE6       30.01R
CAIRO*         MOSUNNY   74  70  88 NE6       30.00R
EFFINGHAM*     SUNNY     71  63  74 CALM      30.04R
MARION         PTSUNNY   70  70 100 N9        30.02R FOG
MT. VERNON     SUNNY     73  64  73 E3        30.03R
CENTRALIA*     SUNNY     72  64  75 CALM      30.03R
SALEM*         SUNNY     74  65  73 CALM      30.02R
METROPOLIS*    PTSUNNY   73  71  96 E3        30.00S FOG
$$

ILZ067-068-072-073-078-083-087-091-041500-
SOUTHEAST ILLINOIS

CITY           SKY/WX    TMP DP  RH WIND       PRES   REMARKS
LAWRENCEVILLE  MOSUNNY   72  66  81 E5        30.02R
FLORA*         SUNNY     70  64  82 NE3       30.03R
FAIRFIELD*     SUNNY     72  66  83 CALM      30.01R
HARRISBURG*    PTSUNNY   71  71  99 CALM      30.02R FOG
ROBINSON*      SUNNY     71  64  78 NE3       30.03R
CARMI*         SUNNY     73  63  71 CALM      30.01R
$$

ABBREVIATIONS USED IN REMARKS
   TC - TEMPERATURE IN CELSIUS
  WCI - WIND CHILL INDEX
   HX - HEAT INDEX
  VSB - VISIBILITY
$$



USA.gov is the U.S. government's official web portal to all federal, state and local government web resources and services.